User: anonymous   Login
Location: PACMO
(41.3967°N, 90.3760°W)
Time: 13:44:03
(UTC-05:00)
Language:

BREEZE-M DEB (TANK) - Orbit

View from above orbital plane
View from above orbital plane
View from above satellite
View from above satellite

Ground track
Ground track

The orbit data is extracted from the following two-line orbital elements,

1 31863U 07032B   16238.95787986 +.00000077 +00000-0 +47716-4 0  9995
2 31863 045.9172 232.7381 4982288 107.6754 311.1142 05.51979032183172
Epoch (UTC): 25 August 2016 22:59:20
Eccentricity: 0.4982288
inclination: 45.9172°
perigee height: 408 km
apogee height: 13884 km
right ascension of ascending node: 232.7381°
argument of perigee: 107.6754°
revolutions per day: 5.51979032
mean anomaly at epoch: 311.1142°
orbit number at epoch: 18317

The dashed part of the orbit path shows where the satellite is in the earth's shadow,  

DLR